DG8SBT-13 Weather Reports


time (UTC)temp
C
wind
direction
speed
KPH
gust
KPH
rain 1hr
cm
rain 24hr
cm
rain mn
cm
humidity
%
barometer
mb
20260503024822 21 0 0.0 0.0 0.00 0.00 0.00 31 1017.0
20260503021832 21 0 0.0 0.0 0.00 0.00 0.00 30 1017.1
20260503014842 21 0 0.0 0.0 0.00 0.00 0.00 30 1017.3
20260503011852 21 0 0.0 0.0 0.00 0.00 0.00 29 1017.1
20260503001909 21 0 0.0 0.0 0.00 0.00 0.00 29 1017.4
20260502234919 22 0 0.0 0.0 0.00 0.00 0.00 29 1017.6
20260502231929 22 0 0.0 0.0 0.00 0.00 0.00 28 1017.6
20260502224940 22 0 0.0 0.0 0.00 0.00 0.00 28 1017.5
20260502221949 23 0 0.0 0.0 0.00 0.00 0.00 27 1017.7
20260502215001 23 0 0.0 0.0 0.00 0.00 0.00 29 1017.7
20260502212013 24 0 0.0 0.0 0.00 0.00 0.00 29 1017.7
20260502205024 24 0 0.0 0.0 0.00 0.00 0.00 27 1017.9
20260502202034 25 0 0.0 0.0 0.00 0.00 0.00 28 1018.0
20260502195044 25 0 0.0 0.0 0.00 0.00 0.00 27 1018.1
20260502192053 25 0 0.0 0.0 0.00 0.00 0.00 27 1017.8
20260502185101 25 0 0.0 0.0 0.00 0.00 0.00 26 1017.7
20260502182112 26 0 0.0 0.0 0.00 0.00 0.00 25 1017.5
20260502162149 26 0 0.0 0.0 0.00 0.00 0.00 27 1018.1
20260502152209 26 0 0.0 0.0 0.00 0.00 0.00 28 1018.8
20260502122306 25 0 0.0 0.0 0.00 0.00 0.00 35 1021.1
20260502115315 25 0 0.0 0.0 0.00 0.00 0.00 27 1021.5
20260502112323 24 0 0.0 0.0 0.00 0.00 0.00 29 1022.0
20260502105332 24 0 0.0 0.0 0.00 0.00 0.00 30 1022.4
20260502102343 23 0 0.0 0.0 0.00 0.00 0.00 30 1022.8
20260502065449 20 0 0.0 0.0 0.00 0.00 0.00 34 1023.9
20260502062458 20 0 0.0 0.0 0.00 0.00 0.00 34 1024.0
20260502055509 19 0 0.0 0.0 0.00 0.00 0.00 33 1024.0
20260502052518 19 0 0.0 0.0 0.00 0.00 0.00 33 1024.1
20260502045527 18 0 0.0 0.0 0.00 0.00 0.00 33 1024.1
20260502042538 18 0 0.0 0.0 0.00 0.00 0.00 32 1024.0
20260502035550 19 0 0.0 0.0 0.00 0.00 0.00 30 1023.7
20260502032600 19 0 0.0 0.0 0.00 0.00 0.00 30 1023.9